Flag for Canada Weather past 2 weeks in Edmonton, Alberta, Canada

Now
57 °F

Clear.


Feels Like: 53 °F
Forecast: 51 / 70 °F
Wind: 17 mph from Northwest

Location: Edmonton Municipal

Current Time: Aug 20, 2014 at 2:59:59 AM

Latest Report: Aug 20, 2014 at 2:00 AM


Visibility: 9 mi

Pressure: 29.75 "Hg

Humidity: 88%

Dew point: 54 °F

Location of EdmontonLocation

Historic Weather in Edmonton — Graph

°F

Edmonton temperature yesterday

Maximum temperature yesterday: 72 °F (at 6:00 PM)
Minimum temperature yesterday: 63 °F (at 1:54 AM)
Average temperature yesterday: 65 °F

Past Weeks' High & Low Weather Summary

 TemperatureHumidityPressure
High84 °F (Aug 12, 3:00 PM)100% (Aug 14, 4:00 AM)30.18 "Hg (Aug 14, 4:00 AM)
Low50 °F (Aug 9, 3:00 AM)29% (Aug 14, 5:00 PM)29.67 "Hg (Aug 19, 6:00 PM)
Average69 °F67%29.94 "Hg
* Reported Aug 5 1:00 AM — Aug 20 1:00 AM, Edmonton, Weather by CustomWeather, © 2014

Note: Actual official high and low records may vary slightly from our data, if they occured in-between our weather recording intervals... More about our weather records

Advertising

Edmonton weather history for previous 24 hours

 ConditionsComfort  
Time TempWeatherWind HumidityBarometerVisibility
1:00 AM
Aug 20
59 °FClear.5 mph77%29.74 "Hg9 mi
12:00 AM61 °FClear.5 mph77%29.72 "Hg9 mi
11:00 PM
Aug 19
63 °FClear.3 mph73%29.71 "Hg9 mi
10:00 PM63 °FClear.5 mph68%29.70 "Hg9 mi
9:00 PM64 °FSunny.5 mph60%29.69 "Hg9 mi
8:00 PM68 °FSunny.6 mph53%29.69 "Hg9 mi
7:00 PM68 °FSunny.7 mph53%29.67 "Hg9 mi
6:00 PM72 °FSunny.6 mph47%29.67 "Hg9 mi
5:00 PM68 °FPassing clouds.7 mph53%29.68 "Hg9 mi
4:00 PM66 °FLight rain. Partly sunny.5 mph52%29.70 "Hg9 mi
3:00 PM66 °FLight rain. Mostly cloudy.10 mph64%29.71 "Hg9 mi
2:00 PM70 °FScattered clouds.15 mph57%29.70 "Hg9 mi
1:00 PM68 °FPassing clouds.10 mph64%29.70 "Hg9 mi
12:00 PM68 °FPassing clouds.12 mph69%29.68 "Hg9 mi
11:00 AM68 °FPassing clouds.9 mph69%29.69 "Hg9 mi
10:00 AM66 °FPartly sunny.9 mph78%29.69 "Hg9 mi
9:00 AM64 °FScattered clouds.7 mph78%29.69 "Hg9 mi
8:00 AM63 °FScattered clouds.10 mph83%29.70 "Hg9 mi
7:00 AM63 °FPassing clouds.6 mph88%29.70 "Hg9 mi
6:00 AM63 °FOvercast.6 mph88%29.70 "Hg9 mi
5:00 AM63 °FMostly cloudy.3 mph88%29.70 "Hg9 mi
4:00 AM63 °FOvercast.2 mph88%29.70 "Hg9 mi
3:00 AM63 °FLight rain. Mostly cloudy.No wind88%29.69 "Hg8 mi
2:55 AM63 °FOvercast.No wind88%29.71 "Hg9 mi
2:00 AM63 °FOvercast.3 mph88%29.70 "Hg9 mi
Weather by CustomWeather, © 2014

See weather overviewHow to use our weather pages